Address 0x39eda27dd6d2bf13cae9a082d7fcb77ccdb7068b 2

 
Txn Hash Method
Block
From
To
Value [Txn Fee]
0xe2d40cd31ca8170692afafaa25ecab54589302dd2a134c198e569dc7c943071aCreate Or Update...195052362022-08-06 3:11:107 days 12 hrs ago0x39eda27dd6d2bf13cae9a082d7fcb77ccdb7068bOUT 0x09986b4e255b3c548041a30a2ee312fe176731c20 ETH0.000084962818 ETH
0xf1b4ee54da812f5d7a4b453b9e04cb2ad632568c9c9b9dc0461c910f9ef12efdCreate Or Update...195052092022-08-06 3:11:107 days 12 hrs ago0x39eda27dd6d2bf13cae9a082d7fcb77ccdb7068bOUT 0x09986b4e255b3c548041a30a2ee312fe176731c20 ETH0.000099582311 ETH
0x9914379d17274a6b6c2fb26cfdb2d0fe7fe2f0d1e12cdd53fc03978c9ef8181fSet Approval For...195051982022-08-06 3:11:107 days 12 hrs ago0x39eda27dd6d2bf13cae9a082d7fcb77ccdb7068bOUT 0xc5295c6a183f29b7c962df076819d44e0076860e0 ETH0.000076891114 ETH
0xd4c6a8cdbacaee36a5a796cc38461db84315da7f958cb6c3aa4dfc07115c73a40xa07076b2195051822022-08-06 3:11:107 days 12 hrs ago0x39eda27dd6d2bf13cae9a082d7fcb77ccdb7068bOUT 0x09986b4e255b3c548041a30a2ee312fe176731c20 ETH0.000104362741 ETH
0x182a27f585020b29131e58bedcb580996741676693144612d3a947fe3d4ad6e6Swap Exact ETH F...195051692022-08-06 3:10:187 days 12 hrs ago0x39eda27dd6d2bf13cae9a082d7fcb77ccdb7068bOUT SushiSwap: Router0.00045 ETH0.000107670663 ETH
0xd095dbb5d36babbd64e35beec38e900aaa413095c3932095eaa4e544a080c0c5Approve195051212022-08-06 3:09:367 days 12 hrs ago0x39eda27dd6d2bf13cae9a082d7fcb77ccdb7068bOUTTreasure DAO: Magic Token0 ETH0.000083365155 ETH
0x267022583d8f5a19d6c8770778e90dac7410261feed5027bee2c11ae9b489deeSet Approval For...195050762022-08-06 3:08:367 days 12 hrs ago0x39eda27dd6d2bf13cae9a082d7fcb77ccdb7068bOUT 0xb3963985de1b174462dde56418ce7d419caa4c120 ETH0.000077211085 ETH
0xd28caca0a3e92b3303d2e7db4faf587df7f7033b97e0643c80b7f5815be23a2a0xba847759195050472022-08-06 3:07:287 days 12 hrs ago0x39eda27dd6d2bf13cae9a082d7fcb77ccdb7068bOUT tofuNFT: Market0.0001 ETH0.000368623228 ETH
0x6583197c545a7eb5efa1eca0410be1f343e7ec9d82eef5831b2ec5531f889d21Create Retryable...195049562022-08-06 3:04:437 days 12 hrs ago0x39eda27dd6d2bf13cae9a082d7fcb77ccdb7068bOUT Arbitrum: ArbRetryableTx0.11 ETH0.00000001474 ETH
0x23ed036e79478eea370dbf79448bb9a3f7d02b78717d9fcdcdf8a752358024c9Transfer195036452022-08-06 2:39:487 days 13 hrs ago0x39eda27dd6d2bf13cae9a082d7fcb77ccdb7068bOUT0x80c67432656d59144ceff962e8faf8926599bcf80.093559000000009 ETH0.000062408167 ETH
0x795f8869d739bfa56dff0333cf8163a1fd2dc66734d051fe4a9daa8b6c5db7010x7c025200195035432022-08-06 2:37:387 days 13 hrs ago0x39eda27dd6d2bf13cae9a082d7fcb77ccdb7068bOUT 0x1111111254fb6c44bac0bed2854e76f90643097d0 ETH0.000457875349 ETH
0x359387b3128edcdaca1f7a8ee588009d8737b2c3668e5c6be4a46d941940bd350x7c025200169800322022-07-04 13:03:2740 days 2 hrs ago0x39eda27dd6d2bf13cae9a082d7fcb77ccdb7068bOUT 0x1111111254fb6c44bac0bed2854e76f90643097d0.12 ETH0.000444288371 ETH
0x86839d398bf791c8a0acac8a9811ce853b8bad85709799d869a806dba1a74c1fCreate Retryable...165729362022-06-30 7:36:4344 days 8 hrs ago0x39eda27dd6d2bf13cae9a082d7fcb77ccdb7068bOUT Arbitrum: ArbRetryableTx0.1 ETH0.000000062324 ETH
0xcb6a6d7ed38f4f49032a620a6a0549644c652266f402f0bf2025c52d7702dba40x2e4dbe8f163099732022-06-28 23:47:1545 days 15 hrs ago0x39eda27dd6d2bf13cae9a082d7fcb77ccdb7068bOUT 0x9e6ef7f75ad88d4edb4c9925c94b769c5b0d62810 ETH0.000764300677 ETH
0x1a4798ba6e84565dbf1ad8f2363de8bd2bfb77986e43c3ae81603058d0aa2b5f0x2e4dbe8f163099192022-06-28 23:47:1545 days 15 hrs ago0x39eda27dd6d2bf13cae9a082d7fcb77ccdb7068bOUT 0x9e6ef7f75ad88d4edb4c9925c94b769c5b0d62810 ETH0.000764211611 ETH
0x1a479b1ca93e3a672399b3d727fa21f026c2648079aeea4c3b5bff1666cf0bddTransfer148042642022-06-16 14:03:4458 days 1 hr ago0x39eda27dd6d2bf13cae9a082d7fcb77ccdb7068bOUT0x80c67432656d59144ceff962e8faf8926599bcf80.415082000000009 ETH0.000214175633 ETH
0x7dad0181e4d4c085a60fb30d2623ed09565a6c501c17ae89cb7a92c038145df9Set Approval For...148042182022-06-16 14:03:4458 days 1 hr ago0x39eda27dd6d2bf13cae9a082d7fcb77ccdb7068bOUT 0x642ffab2752df3bce97083709f36080fb1482c800 ETH0.000265266849 ETH
0x1c8cc180fdb11cbb2d844ba1f1463703127e7d96ba8842071bcc95e54ae7f8480xba847759148041802022-06-16 14:03:1558 days 1 hr ago0x39eda27dd6d2bf13cae9a082d7fcb77ccdb7068bOUT tofuNFT: Market0.01449 ETH0.001294289861 ETH
0x9981ba31e4350c9ac13c699fe7e09ae0591f0ba80475b95c4fcf608907792d49Borrow148040512022-06-16 14:01:4358 days 1 hr ago0x39eda27dd6d2bf13cae9a082d7fcb77ccdb7068bOUTAave: Pool V30 ETH0.000291359511 ETH
0x81a487b8ec74fb623224388172738cdbb549a81b661e83b5b034926986993404Deposit ETH148040262022-06-16 14:00:3958 days 1 hr ago0x39eda27dd6d2bf13cae9a082d7fcb77ccdb7068bOUTAave: WETH Gateway V30.001 ETH0.000322337445 ETH
0xfe07b67a98a530f0622fb5bf8bd7025e2a8319a5c9fc4fa6a653d53064b8065b0x7c025200148039682022-06-16 14:00:3958 days 1 hr ago0x39eda27dd6d2bf13cae9a082d7fcb77ccdb7068bOUT 0x1111111254fb6c44bac0bed2854e76f90643097d0 ETH0.002004860616 ETH
0x4fc6fb55d3f8bead258939ef9e98756ff9ee858546875e4c21c3fd66486bb3fcApprove148039392022-06-16 14:00:2658 days 1 hr ago0x39eda27dd6d2bf13cae9a082d7fcb77ccdb7068bOUT 0xfd086bc7cd5c481dcc9c85ebe478a1c0b69fcbb90 ETH0.000286269597 ETH
0x753edfc318c68cf9d2a629f174ab000fdb557f2333d2533cf84638c99cb77e510x7c025200148039222022-06-16 14:00:2658 days 1 hr ago0x39eda27dd6d2bf13cae9a082d7fcb77ccdb7068bOUT 0x1111111254fb6c44bac0bed2854e76f90643097d0.4 ETH0.001508419739 ETH
0x50c35f0f574bf9c85b5f31a9275156796b8beeab36490bbc006c7c541be7d53eCreate Retryable...148037152022-06-16 13:57:1958 days 1 hr ago0x39eda27dd6d2bf13cae9a082d7fcb77ccdb7068bOUT Arbitrum: ArbRetryableTx0.44 ETH0.000000076608 ETH
[ Download CSV Export 
Latest 3 internal transactions
Parent Txn Hash Block From To Value
0x795f8869d739bfa56dff0333cf8163a1fd2dc66734d051fe4a9daa8b6c5db701195035432022-08-06 2:37:387 days 13 hrs ago 0x1111111254fb6c44bac0bed2854e76f90643097d0x39eda27dd6d2bf13cae9a082d7fcb77ccdb7068b0.076065413737621412 ETH
0x0d5bc4467c86c12d278200cf62b4b285513c50919589aed6a03c97547229d06e155151972022-06-23 13:01:4251 days 2 hrs ago 0x33ceb27b39d2bb7d2e61f7564d3df293440204170x39eda27dd6d2bf13cae9a082d7fcb77ccdb7068b0.039923256939438923 ETH
0xfe07b67a98a530f0622fb5bf8bd7025e2a8319a5c9fc4fa6a653d53064b8065b148039682022-06-16 14:00:3958 days 1 hr ago 0x1111111254fb6c44bac0bed2854e76f90643097d0x39eda27dd6d2bf13cae9a082d7fcb77ccdb7068b0.397849030299145481 ETH
[ Download CSV Export 
Loading

Contract Name:
0 ETH

Compiler Version
0

Optimization Enabled:
0 ETH

Other Settings:
-NA-
Block Transaction Gas Used Reward
Age Block Fee Address BC Fee Address Voting Power Jailed Incoming
Block Uncle Number Difficulty Gas Used Reward
Loading
Make sure to use the "Vote Down" button for any spammy posts, and the "Vote Up" for interesting conversations.